Temp
-13 -13 -13 -12 -12 -12 -11 -12 -12 -12 -11 -11 -11 -11 -11 -11 -12 -12 -12 -13 -13 -13 -13 -13 -13 -13 -13 -13 -12 -13 -12 -12 -12 -12 -13 -12 -13 -13 -15 -16 -16 -16 -16 -16 -15 -15 -15
-13 -13 -13 -13 -12 -12 -12 -12 -12 -12 -12 -12 -12 -11 -11 -11 -12 -12 -12 -13 -13 -13 -13 -13 -13 -13 -13 -13 -12 -13 -13 -12 -13 -13 -13 -13 -13 -13 -14 -16 -16 -16 -16 -15 -15 -15 -15
-13 -13 -13 -13 -13 -13 -13 -13 -12 -12 -12 -12 -12 -12 -12 -12 -12 -12 -12 -13 -13 -13 -13 -13 -13 -13 -13 -13 -13 -13 -13 -13 -13 -13 -13 -13 -13 -13 -15 -16 -16 -16 -16 -15 -15 -15 -15
-14 -14 -13 -13 -13 -13 -13 -13 -13 -13 -13 -12 -12 -12 -12 -12 -12 -12 -12 -12 -12 -13 -12 -13 -13 -13 -13 -13 -13 -13 -13 -13 -13 -13 -13 -13 -13 -14 -14 -15 -16 -16 -15 -15 -15 -15 -15
-15 -14 -14 -14 -14 -14 -14 -14 -13 -13 -13 -13 -12 -12 -12 -12 -12 -12 -12 -12 -12 -12 -13 -12 -13 -13 -13 -13 -13 -13 -13 -13 -13 -13 -13 -13 -13 -14 -15 -16 -17 -16 -16 -14 -15 -15 -15
-15 -15 -14 -14 -14 -14 -14 -14 -14 -14 -13 -13 -13 -13 -12 -12 -12 -12 -12 -12 -12 -12 -12 -13 -13 -13 -12 -12 -12 -13 -13 -13 -13 -13 -13 -13 -13 -14 -14 -17 -16 -15 -16 -15 -15 -16 -15
-14 -14 -14 -14 -14 -14 -14 -14 -14 -14 -14 -14 -13 -13 -13 -13 -13 -12 -12 -12 -12 -12 -12 -13 -12 -12 -13 -12 -12 -12 -13 -13 -13 -13 -13 -13 -13 -14 -15 -17 -16 -16 -16 -15 -15 -15 -15
-14 -14 -14 -14 -14 -14 -14 -14 -14 -14 -14 -14 -14 -14 -13 -13 -13 -13 -13 -13 -13 -13 -12 -13 -13 -12 -12 -12 -12 -12 -13 -13 -13 -13 -13 -13 -13 -14 -15 -16 -16 -16 -17 -16 -15 -15 -15
-15 -15 -14 -14 -14 -14 -14 -14 -13 -14 -14 -14 -14 -14 -14 -14 -14 -14 -14 -13 -13 -13 -13 -13 -13 -12 -13 -12 -12 -12 -12 -13 -13 -14 -13 -13 -13 -14 -14 -15 -15 -17 -16 -16 -16 -16 -15
-14 -14 -14 -13 -14 -14 -14 -14 -14 -14 -14 -14 -14 -15 -15 -15 -15 -15 -14 -14 -14 -14 -13 -13 -13 -12 -13 -12 -11 -13 -12 -13 -13 -14 -14 -14 -14 -14 -14 -15 -16 -16 -16 -16 -16 -15 -15
-16 -16 -15 -15 -15 -14 -14 -14 -14 -14 -14 -14 -14 -14 -14 -15 -15 -16 -15 -16 -15 -15 -15 -14 -13 -12 -13 -12 -13 -13 -13 -13 -13 -14 -15 -14 -14 -14 -14 -15 -16 -17 -15 -17 -17 -16 -16
-18 -18 -17 -17 -17 -17 -17 -17 -17 -17 -16 -16 -15 -15 -15 -15 -15 -17 -16 -17 -17 -17 -13 -14 -13 -13 -13 -13 -12 -13 -12 -13 -14 -15 -15 -15 -14 -14 -15 -16 -15 -17 -16 -17 -17 -16 -16
-20 -20 -20 -20 -20 -20 -20 -20 -20 -20 -19 -19 -18 -17 -16 -16 -16 -17 -17 -18 -19 -16 -15 -14 -14 -14 -13 -13 -13 -13 -12 -12 -12 -13 -14 -15 -14 -14 -15 -16 -15 -15 -16 -17 -16 -16 -16
-20 -20 -20 -20 -20 -20 -20 -19 -19 -20 -20 -20 -20 -20 -19 -18 -19 -19 -19 -20 -19 -14 -15 -15 -14 -14 -13 -13 -13 -13 -13 -12 -13 -14 -15 -15 -15 -14 -14 -15 -17 -16 -16 -16 -15 -15 -15
-20 -20 -20 -20 -20 -20 -20 -20 -20 -20 -20 -20 -20 -20 -20 -20 -20 -21 -21 -21 -18 -15 -17 -17 -16 -15 -14 -13 -14 -14 -13 -12 -14 -14 -15 -16 -16 -16 -15 -15 -15 -16 -17 -15 -16 -16 -15
-20 -20 -20 -20 -20 -20 -20 -20 -20 -20 -20 -20 -20 -20 -20 -20 -21 -21 -22 -21 -19 -16 -18 -18 -17 -15 -15 -14 -14 -14 -14 -13 -14 -15 -16 -17 -17 -17 -15 -16 -15 -15 -16 -16 -16 -15 -15
-20 -20 -20 -20 -20 -20 -20 -20 -20 -21 -21 -21 -21 -20 -20 -21 -21 -22 -21 -20 -20 -18 -20 -19 -17 -17 -16 -17 -16 -15 -15 -14 -14 -15 -16 -17 -16 -17 -16 -15 -15 -15 -15 -15 -16 -16 -16
-20 -20 -20 -20 -19 -19 -19 -19 -20 -21 -21 -22 -21 -20 -20 -21 -22 -21 -21 -19 -19 -19 -21 -19 -18 -17 -16 -18 -17 -16 -16 -16 -15 -16 -15 -16 -17 -16 -17 -15 -15 -17 -16 -17 -17 -16 -16
-20 -20 -20 -19 -20 -20 -20 -20 -20 -20 -22 -22 -22 -22 -21 -22 -21 -21 -21 -20 -19 -19 -21 -21 -18 -19 -19 -18 -17 -16 -16 -16 -15 -15 -15 -17 -16 -16 -17 -17 -15 -16 -16 -16 -16 -16 -16
-20 -20 -20 -20 -20 -20 -20 -21 -21 -22 -22 -22 -23 -23 -22 -22 -22 -22 -21 -21 -20 -21 -20 -21 -20 -20 -19 -18 -18 -17 -17 -16 -16 -16 -16 -17 -17 -15 -15 -15 -17 -15 -16 -17 -17 -16 -16
-21 -21 -21 -21 -22 -22 -23 -23 -23 -23 -23 -23 -23 -23 -22 -22 -21 -21 -21 -21 -20 -22 -21 -21 -21 -21 -20 -20 -19 -18 -17 -17 -18 -18 -18 -17 -17 -16 -16 -16 -17 -17 -17 -17 -17 -17 -17
-21 -21 -22 -24 -25 -24 -24 -24 -24 -24 -24 -24 -24 -24 -23 -22 -23 -23 -22 -22 -21 -21 -22 -21 -21 -20 -19 -20 -20 -19 -18 -17 -18 -18 -18 -17 -17 -17 -16 -16 -18 -18 -17 -17 -17 -17 -17
-23 -25 -25 -25 -25 -25 -25 -25 -25 -25 -25 -25 -25 -25 -24 -24 -23 -23 -22 -21 -21 -22 -23 -22 -20 -22 -21 -19 -20 -18 -17 -17 -18 -17 -18 -18 -17 -17 -16 -16 -17 -17 -16 -17 -17 -17 -17
-25 -25 -25 -25 -25 -25 -25 -26 -25 -25 -25 -25 -25 -25 -25 -24 -24 -23 -22 -22 -22 -23 -22 -22 -24 -24 -21 -21 -20 -19 -18 -17 -18 -17 -18 -18 -18 -18 -17 -16 -16 -14 -16 -16 -16 -16 -16
-27 -28 -27 -27 -26 -26 -26 -26 -26 -25 -26 -25 -25 -25 -25 -25 -24 -23 -23 -24 -23 -24 -25 -25 -25 -22 -22 -22 -22 -21 -19 -18 -17 -17 -18 -18 -18 -18 -16 -16 -16 -15 -15 -16 -16 -15 -17
-29 -28 -28 -28 -28 -28 -28 -27 -26 -26 -25 -25 -25 -25 -25 -25 -24 -24 -24 -23 -24 -23 -24 -25 -25 -24 -21 -22 -22 -22 -19 -18 -17 -17 -18 -17 -18 -18 -17 -17 -16 -15 -16 -17 -17 -15 -16
-28 -28 -28 -28 -28 -28 -28 -27 -27 -26 -26 -26 -25 -25 -25 -25 -24 -24 -24 -24 -24 -23 -23 -24 -24 -22 -21 -22 -22 -22 -22 -19 -17 -17 -17 -18 -18 -18 -17 -16 -15 -15 -18 -18 -17 -16 -18
-28 -28 -28 -28 -28 -28 -27 -27 -26 -26 -25 -25 -25 -25 -25 -25 -25 -25 -24 -24 -24 -24 -23 -24 -23 -22 -21 -22 -22 -21 -20 -20 -19 -17 -17 -17 -18 -18 -18 -17 -15 -16 -16 -17 -16 -17 -17
-27 -27 -27 -28 -28 -27 -27 -26 -26 -25 -25 -25 -25 -25 -25 -25 -25 -25 -25 -24 -23 -24 -23 -24 -22 -21 -21 -22 -22 -21 -20 -20 -19 -18 -17 -17 -17 -18 -18 -17 -17 -17 -17 -18 -17 -17 -16
Height
5751 5753 5754 5757 5758 5760 5762 5764 5767 5769 5771 5773 5775 5777 5779 5781 5783 5783 5785 5788 5789 5791 5792 5792 5793 5793 5792 5793 5792 5791 5790 5788 5786 5785 5782 5777 5773 5768 5767 5766 5766 5766 5765 5764 5763 5761 5761
5738 5740 5742 5744 5746 5749 5751 5753 5755 5758 5761 5763 5766 5767 5769 5772 5775 5775 5778 5779 5781 5783 5785 5785 5786 5787 5787 5787 5787 5786 5786 5784 5782 5781 5779 5776 5772 5767 5766 5764 5765 5765 5764 5763 5763 5763 5760
5725 5727 5730 5732 5735 5737 5739 5742 5744 5746 5749 5751 5754 5757 5759 5763 5766 5768 5769 5771 5772 5775 5777 5778 5779 5780 5781 5781 5781 5781 5781 5780 5779 5778 5776 5774 5770 5766 5764 5763 5764 5764 5764 5764 5765 5764 5759
5714 5716 5717 5720 5722 5724 5727 5730 5733 5736 5738 5739 5742 5746 5750 5753 5755 5757 5760 5762 5765 5767 5769 5771 5772 5773 5776 5776 5776 5776 5776 5776 5776 5775 5774 5771 5769 5766 5763 5761 5762 5765 5768 5766 5763 5765 5761
5701 5703 5705 5707 5710 5713 5715 5718 5721 5723 5727 5729 5731 5734 5738 5742 5745 5748 5750 5753 5755 5758 5761 5764 5766 5766 5770 5771 5770 5770 5770 5772 5773 5771 5770 5769 5767 5765 5762 5761 5764 5767 5769 5764 5764 5765 5764
5688 5689 5691 5695 5697 5700 5703 5707 5709 5712 5715 5717 5720 5723 5727 5730 5734 5737 5740 5743 5746 5749 5752 5755 5759 5760 5763 5765 5765 5765 5765 5766 5768 5768 5768 5766 5765 5763 5761 5761 5766 5769 5770 5769 5765 5764 5763
5673 5676 5677 5680 5683 5685 5688 5691 5695 5699 5703 5705 5709 5712 5715 5719 5723 5726 5730 5733 5736 5739 5742 5748 5750 5752 5754 5758 5759 5760 5760 5761 5763 5764 5764 5763 5762 5761 5758 5761 5762 5763 5765 5768 5763 5760 5762
5659 5661 5662 5664 5667 5669 5672 5675 5678 5683 5687 5691 5694 5699 5702 5707 5712 5715 5719 5722 5724 5728 5733 5737 5740 5745 5748 5750 5753 5754 5755 5758 5758 5759 5759 5761 5759 5758 5757 5756 5756 5758 5762 5767 5763 5761 5763
5640 5642 5644 5647 5650 5652 5654 5657 5662 5665 5669 5674 5679 5683 5689 5693 5699 5704 5708 5710 5713 5715 5720 5729 5732 5736 5741 5743 5745 5747 5749 5752 5752 5752 5755 5756 5756 5755 5755 5753 5752 5754 5760 5761 5763 5759 5761
5618 5620 5623 5625 5628 5632 5635 5639 5642 5647 5651 5655 5660 5666 5673 5679 5685 5689 5695 5698 5701 5706 5708 5719 5725 5728 5732 5735 5735 5742 5744 5745 5743 5748 5749 5752 5751 5752 5751 5749 5750 5754 5756 5754 5756 5759 5761
5598 5599 5600 5602 5605 5609 5612 5616 5620 5624 5630 5635 5641 5648 5655 5662 5668 5676 5679 5686 5689 5694 5697 5705 5714 5719 5723 5727 5731 5733 5738 5735 5739 5742 5743 5748 5746 5747 5747 5747 5748 5753 5750 5752 5754 5757 5758
5582 5583 5583 5584 5586 5589 5592 5596 5600 5604 5608 5613 5619 5626 5635 5646 5653 5657 5664 5671 5674 5681 5682 5692 5698 5710 5714 5719 5721 5724 5727 5730 5734 5734 5737 5739 5741 5742 5744 5743 5744 5746 5748 5749 5750 5753 5755
5564 5565 5567 5570 5572 5575 5577 5581 5585 5589 5592 5596 5600 5606 5616 5627 5636 5636 5644 5650 5655 5661 5680 5684 5691 5699 5706 5710 5713 5715 5719 5721 5724 5727 5730 5734 5735 5738 5738 5739 5740 5741 5744 5749 5750 5751 5751
5550 5552 5554 5557 5560 5563 5565 5569 5573 5576 5581 5583 5588 5592 5601 5612 5615 5617 5623 5629 5632 5658 5667 5672 5679 5690 5697 5701 5704 5706 5711 5712 5716 5719 5726 5727 5728 5732 5734 5734 5737 5737 5741 5744 5744 5745 5748
5535 5538 5540 5544 5548 5551 5555 5559 5562 5566 5569 5572 5575 5583 5592 5598 5598 5598 5601 5602 5617 5649 5657 5665 5672 5680 5686 5691 5695 5698 5702 5706 5711 5714 5717 5721 5725 5726 5726 5728 5731 5735 5736 5741 5742 5741 5744
5522 5525 5528 5532 5535 5539 5543 5547 5550 5553 5556 5559 5563 5570 5580 5582 5583 5579 5581 5588 5612 5635 5643 5651 5659 5671 5676 5680 5685 5689 5694 5699 5702 5707 5712 5716 5722 5722 5720 5722 5723 5726 5732 5733 5735 5736 5737
5507 5509 5512 5515 5519 5522 5526 5530 5534 5538 5541 5543 5545 5553 5568 5568 5564 5561 5565 5585 5610 5624 5629 5637 5651 5657 5665 5671 5676 5680 5688 5693 5696 5700 5703 5708 5713 5718 5713 5715 5717 5720 5723 5726 5731 5733 5734
5489 5490 5492 5495 5499 5503 5506 5511 5515 5519 5523 5522 5528 5539 5547 5548 5548 5553 5561 5585 5606 5615 5614 5622 5633 5641 5650 5660 5665 5671 5677 5683 5687 5692 5693 5700 5705 5708 5707 5711 5713 5717 5718 5721 5723 5727 5728
5468 5469 5471 5473 5476 5480 5484 5489 5494 5498 5501 5506 5508 5521 5526 5528 5532 5546 5565 5573 5587 5595 5602 5611 5620 5632 5639 5649 5655 5661 5667 5673 5675 5681 5683 5692 5695 5698 5705 5705 5704 5707 5712 5715 5717 5721 5718
5445 5445 5446 5447 5450 5453 5458 5464 5471 5477 5482 5487 5488 5491 5503 5509 5527 5535 5550 5565 5572 5579 5587 5599 5609 5616 5627 5637 5643 5650 5656 5661 5665 5671 5678 5685 5687 5690 5694 5702 5701 5700 5704 5709 5712 5712 5714
5419 5417 5415 5414 5415 5420 5427 5434 5443 5453 5461 5466 5461 5463 5485 5496 5509 5528 5540 5555 5555 5561 5572 5586 5595 5604 5615 5625 5632 5638 5644 5650 5657 5663 5668 5674 5675 5681 5688 5693 5697 5697 5697 5699 5703 5706 5706
5388 5384 5379 5378 5380 5386 5396 5405 5416 5429 5443 5441 5441 5449 5470 5490 5506 5514 5522 5531 5542 5553 5561 5570 5583 5599 5617 5615 5624 5630 5634 5641 5647 5653 5661 5666 5668 5674 5679 5683 5687 5689 5692 5695 5697 5700 5702
5354 5353 5353 5356 5361 5368 5377 5388 5399 5409 5419 5416 5428 5451 5462 5477 5488 5495 5508 5525 5535 5546 5550 5562 5576 5589 5604 5608 5612 5619 5623 5632 5636 5640 5648 5655 5660 5666 5670 5676 5678 5677 5680 5685 5688 5692 5694
5328 5326 5327 5331 5339 5348 5358 5369 5381 5390 5400 5413 5432 5447 5452 5464 5472 5490 5505 5511 5521 5529 5541 5552 5564 5575 5591 5599 5600 5606 5614 5619 5629 5632 5639 5644 5651 5658 5665 5667 5663 5675 5676 5678 5681 5684 5686
5294 5291 5295 5303 5312 5323 5337 5350 5364 5376 5387 5406 5423 5433 5445 5456 5472 5484 5486 5497 5508 5518 5528 5540 5553 5564 5579 5584 5596 5598 5604 5614 5620 5625 5631 5637 5645 5649 5654 5657 5665 5668 5670 5672 5674 5678 5679
5267 5266 5272 5280 5291 5303 5316 5333 5352 5366 5380 5399 5412 5429 5441 5452 5462 5473 5480 5488 5497 5508 5516 5529 5547 5554 5567 5576 5586 5589 5594 5604 5609 5618 5627 5632 5635 5642 5648 5649 5654 5665 5666 5668 5669 5670 5672
5256 5251 5255 5263 5275 5289 5304 5322 5344 5363 5377 5394 5409 5424 5436 5446 5454 5463 5471 5481 5493 5501 5511 5526 5535 5547 5559 5570 5578 5584 5588 5596 5601 5611 5620 5623 5629 5633 5640 5643 5651 5657 5660 5663 5663 5675 5665
5252 5249 5251 5258 5269 5284 5301 5321 5341 5359 5373 5389 5408 5421 5433 5441 5449 5458 5466 5472 5481 5491 5501 5520 5529 5538 5552 5561 5570 5578 5582 5589 5594 5604 5612 5616 5624 5629 5636 5637 5642 5651 5653 5655 5662 5656 5656
5258 5256 5255 5262 5275 5291 5304 5323 5340 5357 5371 5389 5406 5418 5428 5437 5446 5454 5461 5466 5474 5484 5500 5512 5530 5540 5550 5558 5564 5572 5577 5581 5588 5596 5601 5610 5616 5621 5628 5632 5641 5644 5647 5648 5649 5651 5651
Wind_Speed
55 52 50 51 49 48 48 50 53 51 50 49 47 47 46 44 43 37 35 35 34 33 32 30 30 29 30 29 27 26 26 24 25 26 25 23 25 25 9 4 4 4 6 4 2 5 9
52 52 52 53 54 53 51 51 51 52 51 50 47 48 47 46 45 40 37 35 36 32 32 30 29 29 28 29 26 26 25 24 25 24 22 21 22 21 10 3 10 9 8 6 5 3 1
51 49 51 53 57 56 54 54 51 51 51 50 49 48 48 48 46 44 40 39 35 34 32 31 31 28 28 30 27 27 26 24 24 24 20 18 19 19 14 3 11 11 8 3 4 7 6
51 50 49 51 51 51 51 53 54 52 51 50 48 49 49 48 47 45 44 43 40 35 33 33 30 28 26 29 28 27 25 24 24 25 19 16 16 16 12 2 7 11 2 11 10 12 11
54 54 52 52 52 53 52 52 52 50 51 51 51 50 49 49 49 47 46 44 41 40 34 33 31 28 26 27 27 24 21 22 23 25 18 16 14 12 10 1 0 8 8 16 12 11 8
54 54 54 55 55 55 54 54 53 52 51 50 49 49 49 50 51 51 49 48 44 43 39 33 32 30 27 27 26 24 20 21 20 24 19 17 12 11 9 3 6 12 11 10 15 11 3
61 61 61 62 62 61 59 58 57 57 56 55 53 51 50 49 47 47 48 47 47 46 40 39 33 33 28 28 28 24 20 22 19 23 21 17 11 10 7 10 14 18 19 10 15 5 9
68 68 69 69 69 68 67 67 65 64 62 60 59 58 56 53 53 50 49 47 47 45 42 40 39 33 33 30 32 28 24 21 21 23 23 20 13 10 4 9 13 19 18 12 15 18 12
74 74 74 75 75 75 73 72 71 71 70 67 64 63 61 60 57 54 54 52 49 50 46 38 38 36 32 35 31 32 26 21 22 26 22 18 16 12 7 2 8 13 11 19 19 11 15
79 80 81 80 79 79 79 79 79 77 75 73 71 69 64 63 61 60 58 56 53 54 52 42 35 37 37 35 38 31 28 27 29 24 22 18 17 13 10 5 4 8 10 17 24 19 12
81 81 82 82 83 83 83 81 80 81 81 79 79 74 71 65 67 61 64 58 56 54 53 47 40 38 39 39 35 33 29 33 29 24 26 18 18 15 13 10 9 13 13 19 12 12 14
75 74 72 71 71 73 73 70 69 68 68 68 73 73 72 71 70 63 62 61 59 55 64 52 47 37 37 39 40 35 36 35 29 30 29 26 22 18 14 17 15 16 13 17 11 8 14
52 50 48 48 47 48 48 46 43 42 42 45 51 58 62 62 62 65 65 64 61 66 58 57 51 41 35 38 38 40 38 39 36 33 30 25 22 18 19 18 17 17 15 10 13 14 13
49 48 47 47 46 44 44 44 42 40 41 43 44 43 45 55 65 69 68 65 67 70 62 61 54 41 38 38 39 39 38 39 36 34 29 26 28 21 15 20 16 17 17 17 18 19 10
44 42 41 41 44 45 44 43 44 42 40 41 43 42 41 38 60 69 75 74 71 66 58 52 46 39 40 43 39 38 38 38 35 35 36 27 25 22 24 20 24 21 22 16 20 25 23
45 45 44 45 47 48 48 48 47 48 50 51 49 46 43 43 47 55 69 80 71 60 58 52 49 44 46 44 44 42 40 40 37 38 34 25 25 28 30 24 25 27 22 24 28 21 26
49 49 50 51 52 53 53 56 59 59 57 57 57 54 47 50 54 57 62 72 69 61 60 54 48 52 50 44 42 41 40 41 41 42 41 33 33 28 34 27 23 23 27 26 22 23 22
52 53 55 57 58 59 58 62 59 62 64 67 64 63 58 56 61 62 60 45 58 65 64 62 58 59 56 49 49 45 41 42 43 44 46 38 37 37 34 28 23 21 20 22 29 24 26
55 57 61 63 63 65 66 65 65 66 65 66 71 65 63 62 63 61 53 52 40 64 70 65 65 46 49 52 47 46 44 42 43 46 48 38 44 42 31 27 30 30 30 26 29 25 34
58 62 68 71 71 73 75 72 70 69 67 66 74 75 70 68 61 59 54 52 50 62 69 69 68 62 45 37 59 52 48 48 45 41 38 42 46 41 39 28 23 23 31 31 33 34 32
66 73 79 79 78 77 74 69 69 71 70 68 79 83 75 73 66 56 54 52 57 60 72 71 71 70 54 44 50 51 52 46 41 42 45 48 48 43 38 33 26 25 25 30 30 31 29
77 87 79 65 58 57 58 57 56 64 67 68 76 78 75 67 58 57 53 58 62 55 70 75 75 65 40 43 40 41 51 50 42 46 49 48 46 42 39 38 31 29 29 28 28 29 33
67 55 51 49 49 50 52 48 50 58 64 73 67 61 62 65 63 63 55 56 57 51 67 72 75 63 63 32 41 46 33 50 49 52 52 52 47 45 43 35 34 37 34 29 28 30 29
59 63 60 56 54 54 55 56 46 55 67 67 57 55 57 51 63 55 48 59 55 50 59 74 52 55 63 58 51 51 41 35 51 53 55 54 47 45 41 38 42 25 24 22 24 26 28
54 51 49 51 55 57 57 59 57 58 62 58 45 55 55 51 47 51 59 53 54 49 60 66 59 66 55 58 49 48 47 41 49 50 56 53 46 47 44 42 34 29 25 20 22 26 26
39 40 42 47 49 48 50 56 66 57 63 51 58 52 52 42 47 52 47 53 52 44 65 67 43 54 61 55 53 50 54 46 49 51 52 54 49 47 43 40 37 25 19 17 24 29 28
22 22 30 37 43 46 53 55 67 62 51 47 49 50 48 39 40 39 42 42 48 45 61 49 58 61 59 52 52 50 48 45 52 51 47 46 48 48 43 39 31 25 19 22 27 2 22
13 13 20 30 37 46 48 60 59 56 60 48 49 50 44 32 37 35 37 39 46 49 52 64 59 60 57 58 50 55 44 49 49 46 26 47 48 44 41 37 34 22 20 23 22 28 31
9 10 16 32 40 46 46 59 51 53 51 48 50 46 42 33 37 39 27 25 35 38 51 62 47 53 54 54 51 55 46 48 50 54 34 39 45 42 42 40 27 27 21 20 24 33 33
Wind_Direction
259 259 260 261 261 259 260 260 256 257 259 263 266 262 262 261 262 262 264 266 265 268 268 268 271 276 280 281 290 298 306 303 303 309 327 333 341 347 349 285 220 209 176 201 231 348 288
263 261 261 262 261 261 260 260 259 259 257 259 262 261 262 261 263 263 264 266 266 264 268 266 269 274 274 279 285 291 301 303 297 305 322 331 344 347 328 261 208 210 191 205 244 331 336
263 263 262 260 261 259 258 258 258 257 257 258 258 260 258 259 260 264 265 266 266 268 265 268 272 272 279 275 280 285 291 300 295 301 317 329 342 353 329 273 223 193 192 258 272 304 322
259 257 256 257 258 259 259 259 258 256 255 255 256 257 259 258 259 261 265 267 269 267 268 265 265 272 273 277 281 281 283 291 293 296 312 322 340 357 346 303 209 202 141 233 235 295 291
259 258 258 258 257 258 258 260 260 257 256 254 254 255 257 258 259 261 262 264 264 266 264 268 264 266 268 277 280 282 275 286 291 291 304 314 331 349 347 24 263 231 223 271 299 261 271
263 262 261 261 260 260 260 259 260 260 260 259 257 256 256 258 258 260 261 261 262 262 263 260 264 261 264 267 275 278 269 276 285 287 297 303 319 334 333 237 187 231 256 247 265 220 281
268 267 266 266 265 263 262 262 261 260 261 261 261 259 258 258 257 258 260 262 260 261 260 260 256 259 257 262 264 273 272 268 277 280 287 294 306 318 321 258 207 213 208 219 272 220 247
266 265 267 266 265 265 264 264 264 263 260 258 258 259 258 257 258 257 259 259 260 258 256 256 256 252 253 253 257 262 269 268 267 268 277 285 295 297 298 237 247 218 217 211 249 253 246
269 268 266 266 266 266 265 263 263 263 263 261 259 258 257 257 257 257 258 257 260 261 257 252 253 251 249 248 250 254 261 256 252 257 268 275 282 282 259 245 238 217 200 234 218 232 242
271 269 268 266 266 266 264 263 261 261 261 262 264 263 260 259 255 253 253 254 255 258 262 256 248 250 244 248 246 253 254 249 242 248 254 261 268 268 251 228 228 219 215 232 234 234 263
276 275 274 272 271 269 268 268 268 266 263 262 261 259 260 261 261 253 252 251 252 253 259 262 250 249 246 246 252 246 251 248 246 243 246 259 254 259 243 218 223 192 221 242 220 223 253
274 273 272 271 270 269 268 268 267 266 264 264 262 260 258 256 257 249 247 248 246 244 255 254 258 246 246 242 245 242 243 243 235 232 240 240 244 251 235 221 229 228 247 232 233 214 246
265 262 259 258 258 259 260 257 252 250 252 252 251 250 249 248 243 240 239 239 237 243 252 253 254 252 242 240 240 239 239 244 244 243 245 242 243 245 240 223 226 234 237 224 232 234 255
264 262 260 260 257 257 256 254 252 251 249 253 249 249 245 236 232 233 233 231 231 250 250 252 253 246 243 238 235 235 232 236 232 235 234 235 235 239 244 231 229 240 233 212 248 218 266
262 259 258 257 257 256 254 255 252 249 248 250 252 251 248 246 237 237 233 228 230 243 246 243 244 240 236 234 231 232 235 236 237 238 229 228 231 252 243 225 221 218 234 216 227 247 230
257 255 256 258 257 254 253 253 252 252 251 253 255 254 249 243 237 239 237 234 229 229 229 231 231 228 231 234 234 233 230 236 234 228 230 219 227 228 243 239 233 222 228 223 223 237 246
257 259 260 261 260 259 257 253 251 251 250 249 247 252 251 245 239 236 237 241 233 225 224 224 218 226 225 232 232 232 231 236 235 230 231 214 223 227 241 240 241 230 229 231 224 235 243
268 268 269 269 265 262 261 260 254 250 248 246 244 248 247 242 240 243 242 248 241 227 225 219 217 218 223 220 228 226 226 232 237 230 228 216 225 221 237 247 237 222 238 233 232 224 232
271 272 273 274 268 262 261 256 255 253 248 246 245 242 238 236 239 247 246 241 233 228 229 225 216 206 216 216 220 220 223 227 237 230 222 212 223 228 228 232 236 227 220 225 229 228 239
274 272 274 272 268 263 260 255 251 248 247 243 238 234 230 232 240 236 240 239 234 225 224 226 224 216 197 223 220 221 224 227 230 231 216 216 225 227 233 241 248 234 230 227 231 237 242
271 274 279 274 266 258 257 253 246 242 240 236 232 232 233 235 236 247 253 236 230 223 224 222 227 230 214 217 211 223 218 224 219 214 213 214 220 226 228 234 229 240 241 234 232 239 246
281 280 274 266 256 248 242 234 230 224 223 228 231 231 229 231 229 230 237 235 231 225 222 219 223 225 217 215 224 214 226 220 215 213 211 215 219 222 229 226 224 225 225 236 233 244 244
279 271 264 257 247 240 230 222 220 219 218 219 223 224 228 228 223 223 229 225 231 233 221 221 222 224 213 195 216 207 228 225 209 211 208 216 214 223 228 226 225 228 231 226 235 232 243
278 269 259 251 244 237 231 218 220 223 210 210 217 219 224 222 220 220 224 226 225 228 223 222 216 221 222 224 207 210 214 222 210 212 212 213 213 222 227 224 224 222 232 230 234 235 240
281 264 252 242 238 230 224 221 212 211 203 207 208 215 221 221 214 211 222 226 224 223 218 223 216 222 218 225 220 224 211 215 214 207 212 214 215 220 219 223 228 219 227 223 231 231 242
285 258 243 233 228 223 215 210 199 198 200 197 210 210 213 210 211 220 226 226 219 223 216 215 203 220 216 216 219 223 218 211 203 209 219 217 211 216 219 224 225 217 225 225 232 233 243
299 255 232 221 214 207 200 199 194 196 196 194 197 202 208 205 209 209 219 221 218 222 216 213 210 214 214 211 219 217 228 215 204 199 210 217 217 213 222 225 221 217 228 228 226 185 237
300 212 193 186 190 182 184 185 185 186 181 187 194 202 201 203 200 207 214 214 212 223 217 201 200 212 211 212 214 217 217 217 214 196 201 213 220 217 223 227 223 224 230 241 233 233 242
150 150 161 171 165 172 176 178 184 171 178 186 193 199 194 192 200 202 203 211 221 223 211 210 214 209 215 213 215 218 218 220 212 203 198 196 216 220 225 228 233 237 242 248 239 229 238